| time (UTC) | temp F | wind direction | speed MPH | gust MPH | rain 1hr in | rain 24hr in | rain mn in | humidity % | barometer mb |
| 20260510080032 | 51 | 203 | 0.0 | 0.0 | 0.00 | 0.88 | 0.00 | 94 | 1012.2 |
| 20260510074519 | 51 | 202 | 0.0 | 0.0 | 0.00 | 0.88 | 0.00 | 94 | 1012.0 |
| 20260510073037 | 51 | 202 | 0.0 | 0.0 | 0.00 | 0.88 | 0.00 | 94 | 1012.0 |
| 20260510071508 | 51 | 202 | 0.0 | 0.0 | 0.00 | 0.88 | 0.00 | 94 | 1012.0 |
| 20260510070009 | 51 | 202 | 0.0 | 0.0 | 0.00 | 0.88 | 0.00 | 94 | 1012.1 |
| 20260510064515 | 51 | 203 | 0.0 | 0.0 | 0.00 | 0.88 | 0.00 | 94 | 1012.1 |
| 20260510063020 | 51 | 203 | 0.0 | 0.0 | 0.00 | 0.88 | 0.00 | 94 | 1012.2 |
| 20260510061526 | 51 | 203 | 0.0 | 0.0 | 0.00 | 0.88 | 0.00 | 94 | 1011.8 |
| 20260510060018 | 51 | 203 | 0.0 | 0.0 | 0.00 | 0.88 | 0.00 | 94 | 1011.6 |
| 20260510054511 | 51 | 203 | 0.0 | 0.0 | 0.00 | 0.88 | 0.00 | 94 | 1011.8 |
| 20260510053015 | 51 | 203 | 0.0 | 0.0 | 0.00 | 0.88 | 0.00 | 94 | 1011.9 |
| 20260510051517 | 51 | 203 | 0.0 | 0.0 | 0.00 | 0.88 | 0.00 | 94 | 1012.0 |
| 20260510050026 | 51 | 203 | 0.0 | 0.0 | 0.00 | 0.88 | 0.00 | 94 | 1011.9 |
| 20260510044505 | 51 | 203 | 0.0 | 0.0 | 0.00 | 0.88 | 0.00 | 94 | 1011.9 |
| 20260510043012 | 51 | 203 | 0.0 | 0.0 | 0.00 | 0.88 | 0.00 | 94 | 1011.9 |
| 20260510041522 | 51 | 203 | 0.0 | 0.0 | 0.00 | 0.88 | 0.00 | 94 | 1011.9 |
| 20260510040023 | 52 | 203 | 0.0 | 0.0 | 0.00 | 0.88 | 0.00 | 94 | 1011.5 |
| 20260510034527 | 52 | 203 | 0.0 | 0.0 | 0.00 | 0.88 | 0.88 | 94 | 1011.6 |
| 20260510033042 | 52 | 203 | 0.0 | 0.0 | 0.00 | 0.88 | 0.88 | 93 | 1011.6 |
| 20260510031517 | 52 | 202 | 0.0 | 0.0 | 0.00 | 0.88 | 0.88 | 93 | 1011.9 |
| 20260510030017 | 52 | 202 | 0.0 | 0.0 | 0.00 | 0.88 | 0.88 | 93 | 1011.9 |
| 20260510024526 | 52 | 202 | 0.0 | 0.0 | 0.00 | 0.88 | 0.88 | 93 | 1011.8 |
| 20260510023029 | 52 | 202 | 0.0 | 0.0 | 0.00 | 0.88 | 0.88 | 93 | 1011.8 |
| 20260510021606 | 52 | 202 | 0.0 | 0.0 | 0.00 | 0.88 | 0.88 | 93 | 1011.6 |
| 20260510020016 | 52 | 200 | 0.0 | 0.0 | 0.00 | 0.88 | 0.88 | 93 | 1011.6 |
| 20260510014533 | 52 | 200 | 0.0 | 0.0 | 0.00 | 0.88 | 0.88 | 93 | 1011.8 |
| 20260510013028 | 52 | 200 | 0.0 | 0.0 | 0.00 | 0.88 | 0.88 | 93 | 1011.8 |
| 20260510011526 | 52 | 200 | 0.0 | 0.0 | 0.00 | 0.88 | 0.88 | 93 | 1011.5 |
| 20260510010037 | 53 | 200 | 0.0 | 0.0 | 0.00 | 0.88 | 0.88 | 93 | 1011.3 |
| 20260510004518 | 53 | 200 | 0.0 | 0.0 | 0.00 | 0.88 | 0.88 | 93 | 1011.2 |
| 20260510003025 | 53 | 199 | 0.0 | 0.0 | 0.00 | 0.88 | 0.88 | 93 | 1011.1 |
| 20260510001524 | 53 | 200 | 0.0 | 0.0 | 0.00 | 0.88 | 0.88 | 93 | 1011.0 |
| 20260510000028 | 53 | 200 | 0.0 | 0.0 | 0.00 | 0.88 | 0.88 | 93 | 1011.1 |
| 20260509234528 | 53 | 200 | 0.0 | 0.0 | 0.03 | 0.88 | 0.88 | 93 | 1011.1 |
| 20260509233018 | 53 | 200 | 0.0 | 0.0 | 0.07 | 0.88 | 0.88 | 92 | 1011.2 |
| 20260509231520 | 53 | 200 | 0.0 | 0.0 | 0.12 | 0.88 | 0.88 | 92 | 1011.2 |
| 20260509230034 | 53 | 200 | 0.0 | 0.0 | 0.15 | 0.88 | 0.88 | 92 | 1011.4 |
| 20260509224530 | 53 | 200 | 0.0 | 0.0 | 0.15 | 0.85 | 0.85 | 92 | 1011.5 |
| 20260509223030 | 53 | 200 | 0.0 | 0.0 | 0.13 | 0.81 | 0.81 | 92 | 1011.8 |
| 20260509221529 | 53 | 199 | 0.0 | 0.0 | 0.10 | 0.76 | 0.76 | 92 | 1011.7 |
| 20260509220023 | 54 | 200 | 0.0 | 0.0 | 0.07 | 0.73 | 0.73 | 92 | 1011.9 |
| 20260509214529 | 54 | 199 | 0.0 | 0.0 | 0.05 | 0.70 | 0.70 | 92 | 1012.1 |
| 20260509213028 | 54 | 200 | 0.0 | 0.0 | 0.04 | 0.68 | 0.68 | 92 | 1012.0 |
| 20260509211528 | 54 | 200 | 0.0 | 0.0 | 0.04 | 0.66 | 0.66 | 92 | 1012.0 |
| 20260509210032 | 55 | 200 | 0.0 | 0.0 | 0.07 | 0.66 | 0.66 | 92 | 1011.8 |
| 20260509204526 | 55 | 200 | 0.0 | 0.0 | 0.10 | 0.65 | 0.65 | 92 | 1011.5 |
| 20260509203028 | 54 | 199 | 0.0 | 0.0 | 0.12 | 0.64 | 0.64 | 91 | 1012.1 |
| 20260509201528 | 54 | 200 | 0.0 | 5.0 | 0.19 | 0.62 | 0.62 | 91 | 1012.0 |
| 20260509200014 | 55 | 34 | 0.0 | 0.0 | 0.45 | 0.58 | 0.58 | 91 | 1012.3 |
| 20260509194531 | 54 | 34 | 0.0 | 0.0 | 0.52 | 0.55 | 0.55 | 90 | 1012.1 |
| 20260509193026 | 54 | 34 | 0.0 | 0.0 | 0.50 | 0.52 | 0.52 | 90 | 1012.1 |
| 20260509191508 | 55 | 34 | 0.0 | 0.0 | 0.41 | 0.43 | 0.43 | 88 | 1012.3 |
| 20260509190018 | 56 | 26 | 0.0 | 0.0 | 0.12 | 0.14 | 0.14 | 86 | 1012.0 |
| 20260509184521 | 57 | 22 | 0.0 | 0.0 | 0.01 | 0.03 | 0.03 | 82 | 1011.7 |
| 20260509183023 | 58 | 21 | 0.0 | 0.0 | 0.00 | 0.02 | 0.02 | 80 | 1011.6 |
| 20260509181527 | 58 | 21 | 0.0 | 0.0 | 0.00 | 0.02 | 0.02 | 78 | 1011.5 |
| 20260509180012 | 58 | 21 | 0.0 | 0.0 | 0.00 | 0.02 | 0.02 | 79 | 1011.6 |
| 20260509174515 | 58 | 21 | 0.0 | 0.0 | 0.00 | 0.02 | 0.02 | 79 | 1011.4 |
| 20260509173026 | 58 | 22 | 0.0 | 0.0 | 0.00 | 0.02 | 0.02 | 80 | 1011.9 |
| 20260509171529 | 57 | 21 | 0.0 | 0.0 | 0.00 | 0.02 | 0.02 | 82 | 1012.0 |
| 20260509170026 | 56 | 21 | 0.0 | 0.0 | 0.00 | 0.02 | 0.02 | 82 | 1012.5 |
| 20260509164511 | 55 | 21 | 0.0 | 0.0 | 0.00 | 0.02 | 0.02 | 83 | 1012.6 |
| 20260509163017 | 55 | 21 | 0.0 | 0.0 | 0.00 | 0.02 | 0.02 | 84 | 1012.7 |
| 20260509161517 | 54 | 21 | 0.0 | 0.0 | 0.00 | 0.02 | 0.02 | 85 | 1013.0 |
| 20260509160024 | 54 | 21 | 0.0 | 0.0 | 0.00 | 0.02 | 0.02 | 85 | 1013.0 |
| 20260509154528 | 53 | 21 | 0.0 | 0.0 | 0.00 | 0.02 | 0.02 | 85 | 1013.2 |
| 20260509153046 | 53 | 21 | 0.0 | 0.0 | 0.00 | 0.02 | 0.02 | 84 | 1013.3 |
| 20260509151516 | 53 | 21 | 0.0 | 0.0 | 0.00 | 0.02 | 0.02 | 84 | 1013.3 |
| 20260509150022 | 53 | 22 | 0.0 | 0.0 | 0.00 | 0.02 | 0.02 | 83 | 1013.2 |
| 20260509144524 | 52 | 22 | 0.0 | 0.0 | 0.00 | 0.02 | 0.02 | 84 | 1013.0 |
| 20260509143029 | 51 | 51 | 0.0 | 0.0 | 0.00 | 0.02 | 0.02 | 83 | 1013.2 |
| 20260509141537 | 51 | 51 | 0.0 | 0.0 | 0.00 | 0.02 | 0.02 | 84 | 1013.1 |
| 20260509140017 | 50 | 53 | 0.0 | 0.0 | 0.00 | 0.02 | 0.02 | 85 | 1013.1 |
| 20260509134521 | 50 | 82 | 0.0 | 0.0 | 0.00 | 0.02 | 0.02 | 85 | 1013.1 |
| 20260509133027 | 49 | 101 | 0.0 | 0.0 | 0.00 | 0.02 | 0.02 | 86 | 1013.3 |
| 20260509131526 | 48 | 83 | 0.0 | 0.0 | 0.00 | 0.02 | 0.02 | 86 | 1013.4 |
| 20260509130030 | 48 | 11 | 0.0 | 0.0 | 0.00 | 0.02 | 0.02 | 87 | 1013.8 |
| 20260509124521 | 47 | 11 | 0.0 | 0.0 | 0.00 | 0.02 | 0.02 | 88 | 1013.9 |
| 20260509123026 | 46 | 11 | 0.0 | 0.0 | 0.00 | 0.02 | 0.02 | 88 | 1013.9 |
| 20260509121529 | 46 | 11 | 0.0 | 0.0 | 0.00 | 0.02 | 0.02 | 88 | 1014.0 |
| 20260509120028 | 45 | 9 | 0.0 | 0.0 | 0.00 | 0.02 | 0.02 | 88 | 1013.9 |
| 20260509114535 | 45 | 9 | 0.0 | 0.0 | 0.00 | 0.02 | 0.02 | 88 | 1014.2 |
| 20260509113023 | 45 | 17 | 0.0 | 0.0 | 0.00 | 0.02 | 0.02 | 89 | 1014.1 |
| 20260509111524 | 45 | 17 | 0.0 | 0.0 | 0.00 | 0.02 | 0.02 | 89 | 1014.1 |
| 20260509110007 | 44 | 15 | 0.0 | 0.0 | 0.00 | 0.02 | 0.02 | 89 | 1013.9 |
| 20260509104513 | 44 | 12 | 0.0 | 0.0 | 0.00 | 0.02 | 0.02 | 89 | 1013.8 |
| 20260509103018 | 44 | 5 | 0.0 | 0.0 | 0.00 | 0.02 | 0.02 | 89 | 1013.8 |
| 20260509101505 | 44 | 360 | 0.0 | 0.0 | 0.00 | 0.02 | 0.02 | 89 | 1013.8 |
| 20260509100008 | 44 | 360 | 0.0 | 0.0 | 0.00 | 0.02 | 0.02 | 88 | 1013.8 |
| 20260509094515 | 44 | 5 | 0.0 | 0.0 | 0.00 | 0.02 | 0.02 | 88 | 1013.7 |
| 20260509093015 | 44 | 5 | 0.0 | 0.0 | 0.01 | 0.02 | 0.02 | 87 | 1013.5 |
| 20260509091522 | 44 | 360 | 0.0 | 0.0 | 0.01 | 0.02 | 0.02 | 87 | 1013.6 |
| 20260509090003 | 44 | 5 | 0.0 | 0.0 | 0.02 | 0.02 | 0.02 | 85 | 1013.7 |
| 20260509084509 | 45 | 360 | 0.0 | 0.0 | 0.02 | 0.02 | 0.02 | 83 | 1013.5 |
| 20260509083012 | 45 | 5 | 0.0 | 0.0 | 0.01 | 0.01 | 0.01 | 82 | 1013.6 |
| 20260509081516 | 46 | 5 | 0.0 | 0.0 | 0.01 | 0.01 | 0.01 | 79 | 1013.6 |